Date String (YYYY-MM-DD hh:mm:ss) UTC,Instrument flags,Ambient pressure (hPa),Sample flow (lpm),Bypass flow (lpm),Sample temperature (°C),Ambient temperature (°C),ASC tube jacket temperature (°C),LED temperature (°C),Box temperature (°C),Sample RH (%),Span deviation,Mass concentration (μg/m³),Mass concentration (μg/m³),Mass concentration (μg/m³)
DateTimeUTC,F1_M11,P_M11,Q1_M11,Q2_M11,T1_M11,T2_M11,T3_M11,T4_M11,T5_M11,U1_M11,ZSPAN_M11,X0_M11,X2_M11,X1_M11
2021-10-31 16:00:00,,0832.4,5.00,0.00,26.1,25.3,00.0,35.2,27.9,16.4,0000.0,0005.89,0002.94,0002.30
2021-10-31 16:01:00,,0832.4,5.00,0.00,26.1,25.3,00.0,35.2,27.9,16.5,0000.0,0005.94,0002.98,0002.32
2021-10-31 16:02:00,,0832.3,5.01,0.00,26.1,25.2,00.0,35.2,27.9,16.6,0000.0,0005.99,0003.02,0002.33
2021-10-31 16:03:00,,0832.3,4.99,0.00,26.1,25.3,00.0,35.2,27.9,16.6,0000.0,0006.01,0003.05,0002.35
2021-10-31 16:04:00,,0832.3,5.01,0.00,26.1,25.2,00.0,35.2,27.9,16.6,0000.0,0005.99,0003.05,0002.37
2021-10-31 16:05:00,,0832.3,4.99,0.00,26.1,25.2,00.0,35.2,27.9,16.6,0000.0,0006.17,0003.05,0002.39
2021-10-31 16:06:00,,0832.3,5.00,0.00,26.1,25.2,00.0,35.2,27.9,16.7,0000.0,0005.91,0003.06,0002.40
2021-10-31 16:07:00,,0832.4,5.00,0.00,26.1,25.2,00.0,35.2,27.9,16.7,0000.0,0005.79,0003.05,0002.40
2021-10-31 16:08:00,,0832.3,5.00,0.00,26.1,25.2,00.0,35.2,27.9,16.7,0000.0,0007.87,0003.06,0002.38
2021-10-31 16:09:00,,0832.4,5.00,0.00,26.1,25.2,00.0,35.2,27.9,16.6,0000.0,0008.08,0003.09,0002.40
2021-10-31 16:10:00,,0832.4,5.01,0.00,26.1,25.2,00.0,35.2,27.9,16.5,0000.0,0008.12,0003.05,0002.41
2021-10-31 16:11:00,,0832.3,4.99,0.00,26.1,25.2,00.0,35.2,27.9,16.5,0000.0,0008.14,0003.04,0002.43
2021-10-31 16:12:00,,0832.3,5.01,0.00,26.1,25.2,00.0,35.2,27.9,16.6,0000.0,0008.11,0003.02,0002.45
2021-10-31 16:13:00,,0832.3,4.99,0.00,26.1,25.2,00.0,35.2,27.9,16.7,0000.0,0008.06,0003.00,0002.48
2021-10-31 16:14:00,,0832.4,5.01,0.00,26.1,25.2,00.0,35.1,27.9,16.7,0000.0,0008.46,0003.08,0002.50
2021-10-31 16:15:00,,0832.2,5.01,0.00,26.1,25.2,00.0,35.1,27.9,16.6,0000.0,0009.06,0003.09,0002.52
2021-10-31 16:16:00,,0832.2,4.99,0.00,26.1,25.2,00.0,35.1,27.9,16.8,0000.0,0008.95,0003.08,0002.52
2021-10-31 16:17:00,,0832.2,5.00,0.00,26.1,25.2,00.0,35.1,27.9,16.7,0000.0,0009.26,0003.13,0002.56
2021-10-31 16:18:00,,0832.3,5.01,0.00,26.1,25.2,00.0,35.1,27.9,16.8,0000.0,0008.93,0003.16,0002.58
2021-10-31 16:19:00,,0832.2,5.01,0.00,26.1,25.2,00.0,35.1,27.9,16.9,0000.0,0008.29,0003.16,0002.60
2021-10-31 16:20:00,,0832.2,4.99,0.00,26.1,25.2,00.0,35.1,27.9,16.9,0000.0,0008.22,0003.16,0002.59
2021-10-31 16:21:00,,0832.2,5.01,0.00,26.1,25.2,00.0,35.1,27.9,16.7,0000.0,0008.25,0003.18,0002.60
2021-10-31 16:22:00,,0832.2,5.00,0.00,26.1,25.2,00.0,35.1,27.9,16.7,0000.0,0008.61,0003.18,0002.60
2021-10-31 16:23:00,,0832.2,4.99,0.00,26.1,25.2,00.0,35.1,27.9,16.8,0000.0,0008.74,0003.18,0002.58
2021-10-31 16:24:00,,0832.2,5.00,0.00,26.1,25.2,00.0,35.1,27.9,16.8,0000.0,0008.79,0003.18,0002.56
2021-10-31 16:25:00,,0832.3,4.99,0.00,26.1,25.2,00.0,35.1,27.9,16.7,0000.0,0008.43,0003.14,0002.53
2021-10-31 16:26:00,,0832.2,5.00,0.00,26.1,25.2,00.0,35.1,27.9,16.7,0000.0,0007.83,0003.14,0002.51
2021-10-31 16:27:00,,0832.2,5.00,0.00,26.1,25.2,00.0,35.1,27.9,16.8,0000.0,0007.86,0003.15,0002.50
2021-10-31 16:28:00,,0832.2,4.99,0.00,26.1,25.2,00.0,35.1,27.9,16.7,0000.0,0007.52,0003.11,0002.48
2021-10-31 16:29:00,,0832.2,5.00,0.00,26.1,25.2,00.0,35.1,27.9,16.7,0000.0,0007.41,0003.05,0002.46
2021-10-31 16:30:00,,0832.2,4.99,0.00,26.1,25.2,00.0,35.1,27.9,16.7,0000.0,0005.84,0003.02,0002.46
2021-10-31 16:31:00,,0832.2,5.00,0.00,26.1,25.2,00.0,35.1,27.9,16.7,0000.0,0005.68,0003.01,0002.48
2021-10-31 16:32:00,,0832.2,4.99,0.00,26.1,25.2,00.0,35.1,27.9,16.7,0000.0,0005.32,0003.01,0002.48
2021-10-31 16:33:00,,0832.3,5.01,0.00,26.1,25.2,00.0,35.1,27.9,16.7,0000.0,0004.63,0003.00,0002.48
2021-10-31 16:34:00,,0832.2,5.00,0.00,26.1,25.2,00.0,35.1,27.9,16.7,0000.0,0004.44,0003.02,0002.48
2021-10-31 16:35:00,,0832.3,5.00,0.00,26.1,25.2,00.0,35.1,27.9,16.8,0000.0,0004.35,0003.00,0002.49
2021-10-31 16:36:00,,0832.2,5.00,0.00,26.1,25.2,00.0,35.1,27.9,16.9,0000.0,0004.15,0003.00,0002.51
2021-10-31 16:37:00,,0832.2,5.00,0.00,26.1,25.2,00.0,35.1,27.9,16.8,0000.0,0004.13,0003.00,0002.53
2021-10-31 16:38:00,,0832.1,4.99,0.00,26.1,25.3,00.0,35.1,27.9,16.8,0000.0,0004.13,0003.00,0002.54
2021-10-31 16:39:00,,0832.1,5.01,0.00,26.1,25.2,00.0,35.1,27.9,16.7,0000.0,0004.48,0003.03,0002.55
2021-10-31 16:40:00,,0832.0,4.99,0.00,26.1,25.2,00.0,35.1,27.9,16.7,0000.0,0004.47,0003.02,0002.55
2021-10-31 16:41:00,,0832.1,5.01,0.00,26.1,25.2,00.0,35.1,27.9,16.7,0000.0,0004.70,0003.08,0002.58
2021-10-31 16:42:00,,0832.1,5.00,0.00,26.1,25.2,00.0,35.1,27.9,16.8,0000.0,0004.78,0003.11,0002.58
2021-10-31 16:43:00,,0832.0,4.99,0.00,26.1,25.2,00.0,35.1,27.9,16.7,0000.0,0004.76,0003.10,0002.59
2021-10-31 16:44:00,,0832.1,5.00,0.00,26.1,25.2,00.0,35.1,27.9,16.8,0000.0,0004.74,0003.11,0002.60
2021-10-31 16:45:00,,0832.1,5.01,0.00,26.1,25.2,00.0,35.1,27.9,16.9,0000.0,0004.87,0003.14,0002.62
2021-10-31 16:46:00,,0832.1,5.00,0.00,26.1,25.2,00.0,35.1,27.9,16.9,0000.0,0005.13,0003.17,0002.66
2021-10-31 16:47:00,,0832.1,5.00,0.00,26.1,25.2,00.0,35.1,27.9,16.9,0000.0,0006.59,0003.18,0002.67
2021-10-31 16:48:00,,0832.1,5.00,0.00,26.1,25.2,00.0,35.1,27.9,16.8,0000.0,0007.15,0003.20,0002.67
2021-10-31 16:49:00,,0832.1,4.99,0.00,26.1,25.2,00.0,35.1,27.9,16.7,0000.0,0007.06,0003.20,0002.68
2021-10-31 16:50:00,,0832.1,5.01,0.00,26.1,25.2,00.0,35.1,27.9,16.7,0000.0,0006.58,0003.19,0002.70
2021-10-31 16:51:00,,0832.1,5.00,0.00,26.1,25.2,00.0,35.1,27.9,16.7,0000.0,0007.12,0003.22,0002.72
2021-10-31 16:52:00,,0832.1,5.00,0.00,26.1,25.2,00.0,35.1,27.9,16.8,0000.0,0007.55,0003.24,0002.72
2021-10-31 16:53:00,,0832.1,4.99,0.00,26.1,25.2,00.0,35.1,27.9,16.8,0000.0,0009.23,0003.28,0002.75
2021-10-31 16:54:00,,0832.1,5.01,0.00,26.1,25.2,00.0,35.1,27.9,16.8,0000.0,0009.51,0003.31,0002.80
2021-10-31 16:55:00,,0832.1,4.99,0.00,26.1,25.3,00.0,35.1,27.9,16.8,0000.0,0009.52,0003.32,0002.81
2021-10-31 16:56:00,,0832.1,5.00,0.00,26.1,25.3,00.0,35.1,27.9,16.8,0000.0,0009.79,0003.32,0002.83
2021-10-31 16:57:00,,0832.0,5.00,0.00,26.1,25.3,00.0,35.1,27.9,16.7,0000.0,0009.78,0003.34,0002.85
2021-10-31 16:58:00,,0832.1,5.01,0.00,26.1,25.2,00.0,35.1,27.9,16.8,0000.0,0009.27,0003.35,0002.86
2021-10-31 16:59:00,,0832.0,4.99,0.00,26.1,25.2,00.0,35.1,27.9,16.8,0000.0,0008.89,0003.40,0002.92
